Weather Roundup
Issued by NWS Corpus Christi, TX

Current Version | Previous Version | Text Only | Print | Product List | Glossary On
Versions: 1 2 3 4 5 6 7 8 9 10 11 12 13 14 15 16 17 18 19 20 21 22 23 24 25 26 27 28 29 30 31 32 33 34 35 36 37 38 39 40 41 42 43 44 45 46 47 48 49 50
000
ASUS44 KCRP 270810
HRRCRP

SOUTH TEXAS REGIONAL WEATHER ROUNDUP
NATIONAL WEATHER SERVICE CORPUS CHRISTI TX
300 AM CDT WED MAY 27 2015


TXZ229>244-270900-
...CORPUS CHRISTI AREA OBSERVATIONS...

CITY           SKY/WX    TMP DP  RH WIND       PRES   REMARKS
CORPUS CHRISTI CLOUDY    80  77  90 SE14      29.95S
NAS CORPUS CHR CLOUDY    80  77  90 SE14      29.96R
ROCKPORT       CLOUDY    82  77  84 SE14      29.97R HX  90
KINGSVILLE NAS CLOUDY    81  80  97 SE13      29.95R HX  91
ALICE          CLOUDY    80  77  90 SE12      29.93F FOG
FALFURRIAS     CLOUDY    80  77  90 SE6       29.94R
$$

...VICTORIA AREA OBSERVATIONS...

CITY           SKY/WX    TMP DP  RH WIND       PRES   REMARKS
VICTORIA       CLOUDY    79  78  97 SE10      29.99R FOG
BEEVILLE       MOCLDY    77  77 100 E7        29.96S FOG
PLEASANTON     CLOUDY    77  74  90 E6        29.98R
SAN ANTONIO    CLOUDY    77  74  90 SE7       29.99F
$$

...LAREDO AREA OBSERVATIONS...

CITY           SKY/WX    TMP DP  RH WIND       PRES   REMARKS
LAREDO         CLOUDY    80  75  84 S18       29.92S
COTULLA        CLOUDY    79  75  87 SE7G20    29.94F
DEL RIO        CLOUDY    79  74  84 SE10      29.92S
MCALLEN        CLOUDY    82  77  84 SE10      29.94F HAZE    HX  90
HEBBRONVILLE     N/A     78  75  91 SE10      29.93F FOG
$$

...OTHER TEXAS OBSERVATIONS...

CITY           SKY/WX    TMP DP  RH WIND       PRES   REMARKS
BROWNSVILLE    CLOUDY    79  76  90 S13       29.95F
HOUSTON        CLOUDY    78  75  90 CALM      30.02S
COL. STATION   LGT RAIN  67  63  87 N25G33    30.07R
AUSTIN         MOCLDY    76  75  97 E6        30.02S
WACO           CLOUDY    65  62  90 S7        30.05F
FORT WORTH     CLOUDY    65  59  81 S12       29.98R
WICHITA FALLS  PTCLDY    63  60  90 SW8       29.96S
LUBBOCK        PTCLDY    62  52  69 SE8       30.02F
EL PASO        CLEAR     65  31  28 S5        30.01S
$$

...MARINE OBSERVATIONS...

STATION/POSITION TIME  SKY/WX   TEMP    WIND        PRES    VSBY  WAVE   SWELL
                                AIR SEA DIR/SP/G                  HT/PER HT/PER
                 (UTC)          (F)     (DEG/KT/KT) (MB)    (MI)  (FT/S) (FT/S)
PORT ARANSAS     0800            81 82  130/ 17/ 19 1015.1R
BUOY 90 E PORT A 0750            81 80  160/ 14/ 16 1015.6S         7/ 7   5/ 7
BUOY 45 SE BAFFI 0750            81 81  150/ 16/ 19 1014.1F         6/ 7
BUOY 200 E PT IS 0750            82 81  130/ 14/ 16 1015.8F         5/ 8   3/ 8
BUOY 15 E GALVES 0750            80 80  150/ 12/ 16 1016.0S         4/ 7   3/ 7
$$



USA.gov is the U.S. government's official web portal to all federal, state and local government web resources and services.